Theta_e
303 303 303 304 304 304 304 305 305 303 303 298 296 300 297 297 295 306 310 315 311 302 293 295 291 291 294 299 298 299 298 296 297 295 297 295 298 296 294 295 292 293 292 293 292 294 291 293 290 293 294 294 295 298 298 297 296 293 289 294 294 304 283 282 284 288 290 293 294 295 295 293 289 289 292 291 286 287 284 282 285 283 285 282 280 278 282
303 303 303 303 303 304 304 305 305 304 303 298 298 296 296 296 297 300 309 317 311 298 285 284 284 292 295 296 295 298 297 296 295 295 296 295 295 294 296 294 296 294 296 293 291 295 286 295 293 291 294 293 299 298 298 298 293 292 293 290 296 284 286 284 279 278 280 283 288 287 292 292 287 286 288 290 289 291 291 291 287 281 282 284 280 274 281
303 303 303 303 304 304 304 304 304 304 304 302 298 294 298 297 301 302 304 311 310 294 295 291 286 291 292 293 293 294 295 297 296 295 295 298 295 296 295 295 296 294 296 294 295 295 292 290 296 295 295 294 299 297 296 299 296 300 303 306 298 286 286 284 277 274 273 273 275 276 281 283 287 291 289 290 290 290 286 280 281 278 282 286 281 279 286
303 303 303 303 303 304 304 304 304 303 303 304 299 299 298 296 286 296 297 302 303 299 300 297 292 288 291 286 292 294 292 296 298 298 295 298 296 294 294 296 296 293 294 293 293 292 296 293 293 292 291 293 296 297 299 299 298 303 305 301 297 287 290 286 283 280 278 280 284 290 289 286 282 286 288 288 291 291 289 283 280 279 281 279 284 286 285
303 303 303 303 303 304 304 304 303 303 303 304 299 300 299 299 293 289 286 295 297 296 299 295 294 287 292 283 293 290 293 294 295 299 292 297 295 295 294 295 292 293 292 292 292 295 292 294 292 292 292 294 295 297 299 299 301 304 300 298 289 286 280 286 287 287 286 287 286 288 289 285 286 286 286 288 287 287 285 280 279 286 281 278 285 288 285
302 303 302 303 303 303 304 304 303 303 303 304 305 296 296 288 293 296 296 290 286 289 289 294 293 295 295 291 295 292 291 293 289 297 297 296 297 291 293 293 293 292 291 294 287 290 290 291 286 294 294 294 294 293 296 296 304 298 294 297 290 285 278 286 287 285 286 287 287 288 288 288 287 287 286 286 287 286 283 282 286 286 280 279 284 287 285
302 302 302 302 303 303 303 304 303 303 302 304 298 290 293 294 294 296 299 291 296 295 295 296 294 293 295 291 293 291 292 291 293 294 296 295 295 295 284 291 292 293 294 292 287 290 283 282 292 291 291 292 292 291 292 295 295 293 293 293 291 285 280 288 287 285 286 287 287 288 287 286 286 286 286 287 286 285 286 286 287 287 285 286 286 286 284
302 302 302 302 303 303 303 304 304 303 302 304 298 292 288 287 288 289 295 296 295 295 294 294 294 290 295 287 292 292 291 290 293 295 294 288 293 295 292 291 292 294 293 292 288 290 291 290 284 291 291 288 291 290 291 288 293 293 291 292 293 287 282 291 289 283 285 287 288 288 287 286 284 286 286 286 286 286 286 286 286 287 285 286 285 281 283
302 302 302 302 303 303 303 304 303 302 302 299 297 294 293 292 295 295 291 289 293 294 294 293 291 288 290 287 291 291 291 291 293 292 295 292 290 292 291 292 292 293 291 290 289 291 291 292 291 292 291 286 294 288 290 293 290 292 291 292 292 289 282 290 286 278 278 286 286 287 287 286 285 284 285 285 285 281 283 282 286 285 283 283 283 282 282
302 302 302 302 302 303 303 303 304 302 302 298 297 294 295 294 297 298 293 285 293 289 291 291 289 284 289 291 291 290 290 292 293 286 294 295 295 293 292 293 291 289 289 288 289 292 293 293 294 293 293 293 293 293 292 291 289 289 289 291 286 286 283 281 280 278 277 285 286 285 285 282 279 277 284 287 286 287 288 288 289 288 287 283 281 280 287
302 302 302 302 302 303 303 303 304 303 301 296 295 295 294 291 290 293 294 286 286 290 289 288 288 289 291 291 290 292 291 291 292 286 285 294 293 295 294 292 289 285 286 289 294 295 295 296 296 295 294 293 292 291 291 293 291 291 290 288 287 288 286 281 284 277 277 285 285 284 279 271 273 284 290 291 288 287 285 284 287 288 289 284 287 286 289
302 302 302 302 302 303 303 303 303 304 301 299 299 298 296 296 295 295 289 284 284 289 288 285 287 290 289 291 290 290 290 290 290 292 289 291 292 294 293 292 290 281 290 294 295 295 296 297 296 295 295 293 293 292 292 290 290 290 290 289 285 284 284 281 283 277 277 280 279 275 269 271 283 289 291 292 291 289 288 287 288 288 289 289 288 288 288
302 303 302 302 302 303 303 303 303 303 303 301 300 297 298 299 295 292 289 286 282 285 283 286 289 290 291 291 290 290 292 292 293 293 293 291 290 292 293 291 289 289 294 293 294 293 289 287 287 289 289 290 290 291 290 289 288 290 289 289 287 281 281 281 281 279 279 277 276 268 268 283 288 289 289 292 291 289 286 284 286 287 288 288 286 287 288
302 302 302 302 302 302 303 303 303 304 304 303 299 300 300 298 295 292 289 285 284 286 287 286 288 289 290 290 289 290 291 291 291 293 292 294 291 291 293 293 292 293 294 294 291 290 284 284 279 281 282 285 285 284 288 289 290 289 289 290 290 287 284 282 279 280 272 273 273 274 282 282 283 282 284 286 283 284 282 278 281 287 287 287 286 287 288
303 302 302 302 302 302 303 303 303 304 304 303 300 301 300 299 298 294 294 291 285 285 286 281 286 289 290 289 289 287 286 287 287 286 292 295 295 293 293 293 293 293 293 291 286 288 283 282 278 278 279 279 274 277 287 284 290 290 290 290 290 288 283 282 279 278 280 274 273 272 272 269 276 285 289 291 291 290 289 285 281 288 288 288 287 286 287
303 303 302 302 302 302 302 303 303 303 303 303 300 299 300 300 299 297 295 290 288 280 283 289 291 289 287 287 289 286 283 282 284 286 287 290 290 292 293 293 294 294 293 291 289 285 283 280 278 277 274 278 284 282 279 286 284 289 291 291 291 291 290 285 282 279 278 276 273 271 269 272 281 283 287 289 289 290 290 282 277 285 287 288 287 286 287
303 303 302 302 302 302 302 302 303 303 303 303 298 299 298 301 299 296 294 293 289 281 290 291 292 290 285 286 288 286 287 281 285 281 281 283 287 289 291 293 292 293 292 288 286 284 281 281 282 280 282 285 281 280 285 283 282 284 289 289 289 286 282 282 279 278 279 278 275 274 277 275 283 286 287 288 289 290 281 273 274 284 287 288 287 286 286
303 303 302 302 302 302 302 302 303 303 303 304 300 298 298 300 301 299 296 293 286 283 288 292 290 286 285 286 285 289 291 289 288 288 285 288 288 288 289 290 287 293 294 283 284 281 280 281 278 279 278 286 286 286 276 282 280 280 280 282 280 282 282 282 277 277 279 279 274 275 276 283 287 287 288 288 290 286 273 270 275 284 286 287 287 286 286
302 303 302 302 301 301 301 302 303 303 303 303 301 300 299 301 301 300 295 292 289 281 289 293 293 291 292 294 290 290 290 289 287 282 282 282 285 290 291 292 292 282 289 282 284 280 280 281 285 283 279 282 285 279 283 280 280 283 285 280 281 280 279 280 279 276 275 275 274 274 277 282 286 288 288 288 284 274 273 282 286 286 285 286 286 286 286
302 302 302 302 301 301 301 302 302 303 303 304 301 296 298 301 301 300 295 290 291 285 288 290 291 289 292 289 285 285 286 288 287 283 282 280 288 290 285 281 287 288 284 284 279 282 281 280 282 285 280 281 283 287 281 282 286 282 283 285 280 281 278 277 277 279 276 275 273 274 271 282 291 288 285 286 277 279 285 287 288 289 287 286 285 286 285
302 302 302 302 301 301 302 302 303 303 303 303 302 297 297 299 299 299 299 295 290 283 284 293 294 292 292 291 291 291 289 285 286 284 286 286 289 287 279 279 282 283 280 280 277 279 281 280 280 280 284 282 284 283 278 280 283 286 285 283 282 286 278 278 279 281 274 275 273 275 279 283 290 286 280 283 285 286 286 285 283 286 286 285 285 285 286
301 301 302 302 301 301 301 302 303 303 304 304 302 299 296 299 300 299 300 299 291 285 287 295 295 294 294 294 294 294 293 292 293 293 287 284 289 288 287 289 287 285 286 285 281 279 282 281 284 280 276 280 285 278 281 275 274 281 287 285 276 283 281 281 276 281 278 276 278 284 286 286 288 288 287 287 288 288 287 286 285 284 285 286 285 285 287
301 301 302 301 301 301 301 302 303 303 303 303 301 296 295 298 296 299 298 293 294 295 296 294 296 294 295 296 297 296 296 295 296 295 293 287 282 286 286 285 285 290 289 287 281 281 281 280 277 281 278 279 278 276 279 278 278 281 278 284 281 284 284 284 281 279 284 285 285 287 285 286 286 287 288 287 287 287 287 287 284 285 286 286 285 286 286
301 301 302 302 301 301 301 302 303 303 303 303 302 297 296 298 297 297 295 294 287 286 288 290 286 282 287 290 293 294 295 295 296 296 298 294 283 282 287 289 291 289 286 289 287 284 281 281 282 282 275 280 281 276 276 275 275 278 279 279 282 283 283 281 276 281 277 271 282 282 282 284 286 287 288 288 288 287 287 286 286 286 286 287 287 286 286
301 301 301 301 301 301 302 303 303 303 302 302 301 301 301 298 296 296 292 284 284 285 282 282 284 291 294 295 295 293 293 297 296 296 295 295 292 285 284 289 292 287 285 288 289 286 283 279 279 278 275 282 282 275 280 277 277 281 275 279 280 278 284 279 281 278 274 275 281 283 284 284 285 285 285 285 286 287 287 288 288 287 288 287 288 288 288
301 301 301 301 301 301 302 303 302 302 302 302 302 297 297 295 297 298 295 294 292 287 283 282 287 297 294 292 291 293 296 295 294 296 298 296 295 292 291 293 293 297 292 291 289 284 282 281 280 280 277 279 285 278 277 279 278 282 279 277 282 282 284 275 280 277 279 282 283 284 284 284 285 286 287 287 287 287 287 287 288 288 288 288 288 288 288
300 300 301 301 301 301 301 302 302 302 302 302 300 299 299 298 299 296 293 292 287 283 284 282 287 291 293 292 293 295 295 293 292 292 293 294 295 295 294 292 290 289 289 286 288 285 283 281 280 278 281 281 284 282 282 279 280 277 276 280 284 280 276 280 279 274 273 275 279 282 276 275 282 285 286 287 288 287 287 287 287 287 287 287 287 288 289
300 300 301 301 301 301 301 301 302 302 302 302 300 299 301 299 299 298 298 296 291 283 282 283 283 288 293 292 293 293 293 293 292 294 291 292 293 294 291 290 290 288 286 284 282 282 281 278 279 282 281 282 281 277 282 281 282 279 279 280 284 280 281 279 274 274 273 281 284 283 283 283 284 286 287 288 288 287 286 286 286 287 287 288 287 287 288
300 300 300 301 301 302 302 301 301 301 302 301 299 298 299 300 300 299 299 300 298 292 287 286 289 289 282 286 294 291 293 294 294 293 292 292 291 292 288 289 287 289 290 285 284 283 281 281 283 281 280 284 280 277 279 274 274 273 278 283 283 284 287 285 283 283 283 285 285 285 284 281 284 286 287 287 288 288 287 288 288 288 288 288 287 287 286
299 300 300 301 301 302 302 301 301 301 302 299 298 295 290 293 299 297 298 300 298 295 285 282 280 282 291 291 291 291 291 294 292 293 293 290 290 289 288 288 287 289 287 283 282 279 281 281 281 284 287 288 278 279 274 276 274 277 283 284 285 285 286 287 286 283 281 286 286 287 286 285 286 287 288 288 289 290 288 288 288 288 287 288 287 287 288
300 300 300 301 302 302 302 301 301 301 301 298 296 287 285 283 292 299 299 299 300 295 287 285 282 284 285 291 291 290 290 291 290 290 291 290 289 288 290 289 288 287 281 282 282 281 283 279 280 282 288 288 284 278 276 275 273 277 283 285 286 286 286 286 287 286 287 286 287 287 286 286 287 287 286 287 287 289 287 287 289 291 289 288 287 287 288
300 300 300 301 301 302 302 301 301 300 298 295 290 288 288 289 294 297 298 300 300 293 286 281 280 281 280 284 291 293 293 293 292 292 289 291 289 290 288 289 283 289 286 281 281 281 280 281 280 282 283 287 286 279 278 276 273 275 284 285 286 286 286 286 286 287 288 288 286 284 283 284 286 285 283 287 288 289 287 287 287 287 289 289 289 289 288
300 300 301 301 301 302 303 303 301 299 296 298 301 300 300 298 300 300 301 299 296 291 291 283 278 280 279 284 291 292 294 291 289 288 285 290 288 287 283 289 288 288 293 284 279 278 281 281 281 278 282 285 280 279 277 273 277 282 284 285 284 286 286 287 287 287 287 287 287 282 280 283 285 287 288 288 289 288 287 287 287 287 286 288 288 287 287
300 300 301 301 301 302 302 302 301 300 300 296 294 296 300 299 298 300 300 298 294 292 289 283 278 278 279 287 283 289 293 286 285 287 281 288 289 286 283 284 286 281 284 280 282 281 282 282 280 280 283 280 281 277 273 276 284 285 285 284 285 285 286 286 285 285 286 286 287 287 288 288 288 288 287 287 287 287 287 286 286 285 285 287 286 287 287
300 300 301 301 301 302 302 301 296 296 294 296 297 298 300 300 299 300 300 296 284 284 283 282 282 279 279 279 280 284 293 287 282 286 282 286 290 284 286 280 282 279 280 288 281 280 278 279 282 278 276 280 278 275 276 279 282 284 284 284 285 285 284 283 283 285 285 286 286 286 288 288 286 285 286 287 286 286 286 286 286 285 285 285 286 286 286
300 301 301 301 302 302 298 299 297 295 294 294 294 301 301 302 300 299 299 300 294 284 281 282 282 279 280 275 276 282 293 285 287 287 285 283 284 289 286 282 276 280 286 281 278 280 279 284 280 275 280 276 275 278 279 283 283 283 284 284 284 285 284 283 283 285 285 286 287 288 288 286 285 285 288 288 287 286 286 286 286 286 285 284 284 285 286
301 301 302 301 301 298 293 291 299 298 294 296 299 303 303 302 301 300 298 296 297 296 286 281 280 280 281 278 281 283 287 279 285 281 282 281 280 281 282 280 277 280 280 279 279 277 280 286 280 275 276 274 277 284 285 285 284 283 284 284 285 285 285 285 286 286 285 285 286 286 285 284 285 286 286 286 286 286 285 285 286 285 285 285 285 285 286
302 302 299 297 296 288 288 290 295 299 301 299 300 296 296 295 286 287 288 286 290 293 286 286 280 282 286 282 279 287 285 281 284 280 281 283 280 279 282 279 279 280 273 276 279 285 282 280 277 275 275 280 283 285 285 285 285 284 285 285 285 286 286 286 286 285 283 281 281 283 284 284 285 286 286 285 285 283 282 284 286 287 287 286 285 285 285
301 298 297 296 293 287 287 292 301 299 296 299 298 289 286 288 285 283 282 284 285 282 285 283 281 284 283 281 283 289 285 280 279 282 279 284 280 278 281 274 279 278 275 275 276 285 274 277 277 276 274 279 281 283 286 285 286 287 287 285 286 286 287 286 287 285 284 283 284 285 284 282 283 285 287 286 285 284 283 284 285 286 285 285 285 286 285
297 294 289 288 288 289 297 301 302 298 296 288 289 286 281 284 282 279 285 280 280 283 283 280 285 285 286 282 280 281 288 283 278 277 278 280 286 277 280 278 279 277 270 272 275 283 275 271 275 274 272 277 278 284 284 284 285 285 285 285 287 287 287 287 287 287 287 287 288 287 287 287 287 287 287 286 285 281 282 283 285 285 285 285 286 286 285
294 293 291 286 292 295 296 298 298 296 288 283 283 283 281 278 282 283 282 279 279 280 285 284 285 284 287 286 285 281 290 288 287 286 282 278 284 282 278 273 281 274 272 271 279 280 277 274 274 272 272 280 282 284 284 284 284 284 285 287 287 287 287 287 286 287 288 287 287 287 287 287 288 288 288 287 285 282 281 282 283 285 285 286 286 285 286
293 292 293 296 296 296 296 293 290 286 285 285 279 276 280 280 282 282 281 276 278 282 284 284 280 282 283 286 285 284 284 290 285 283 281 277 282 278 275 277 279 272 268 275 279 278 276 270 271 271 278 283 285 285 285 283 284 284 286 286 287 287 286 286 286 287 288 287 287 287 288 288 287 286 286 285 284 284 283 284 284 284 285 286 286 286 286
299 299 299 295 293 288 289 284 286 284 278 277 276 275 279 276 278 277 279 283 285 283 283 290 287 289 289 289 286 288 284 288 283 282 280 277 283 281 277 276 274 269 273 280 278 274 272 270 270 272 279 284 286 284 283 284 284 284 286 287 288 287 287 286 286 286 287 287 286 286 286 287 287 286 285 285 283 283 284 284 284 285 284 285 285 285 285
298 297 293 289 285 285 286 275 285 281 278 279 276 271 275 275 277 280 278 280 283 283 285 282 284 284 281 286 284 283 283 285 285 283 281 282 279 276 276 272 271 277 282 276 275 271 272 274 274 277 281 285 287 283 282 283 284 284 285 287 287 287 287 287 286 286 286 286 286 285 286 286 286 285 285 284 284 284 284 284 285 285 285 285 284 284 284
290 287 286 284 281 284 281 271 283 279 274 276 280 277 278 275 279 281 281 285 287 284 287 286 285 285 282 286 285 284 283 280 284 279 276 279 275 277 274 272 277 278 274 272 273 272 273 272 276 280 283 283 283 282 283 283 283 283 283 285 287 288 287 286 286 286 285 286 285 285 285 285 285 284 283 283 284 285 284 284 284 284 284 284 283 283 284
286 284 282 277 272 279 279 276 278 276 280 281 280 281 280 282 282 283 288 289 286 285 285 284 285 284 281 284 281 280 283 282 279 278 281 280 275 272 278 281 280 273 272 272 269 269 270 274 277 280 283 284 283 281 282 283 284 285 285 284 287 287 287 287 286 286 286 286 286 285 285 285 285 284 282 284 284 285 284 285 284 285 284 283 283 283 284
286 287 285 283 277 280 282 276 278 280 282 282 284 285 285 286 287 287 290 288 286 286 286 286 285 284 280 281 281 282 283 283 279 281 281 276 275 278 282 276 272 273 268 266 266 268 271 275 278 281 283 282 280 280 282 283 284 284 283 285 286 288 288 287 287 286 287 287 287 286 286 286 286 286 284 283 284 285 284 285 285 285 285 283 283 284 283
284 287 284 276 274 280 278 280 284 285 286 286 286 287 288 288 285 285 289 288 287 287 286 285 282 283 283 285 284 280 281 282 279 280 281 278 279 276 275 274 273 273 273 269 270 273 276 280 282 283 284 283 282 282 283 283 284 285 284 285 286 288 288 288 287 288 288 287 286 286 286 286 286 285 284 284 283 284 285 285 284 285 285 284 284 283 283
287 283 280 280 281 282 281 283 283 281 284 286 286 286 286 286 285 286 289 289 286 286 287 284 282 281 279 283 281 281 278 282 276 276 281 278 273 270 270 268 269 268 273 275 276 278 280 283 283 284 284 283 281 284 283 283 284 283 284 284 285 287 289 289 288 288 288 288 287 287 287 287 286 286 284 284 283 283 284 285 285 284 284 283 283 282 281
285 284 285 283 281 282 283 284 282 281 283 283 283 283 284 284 284 287 289 288 288 286 285 285 284 281 280 279 275 277 277 280 278 280 277 275 275 276 274 270 271 269 272 276 278 282 283 284 284 283 285 284 284 284 283 284 284 284 285 286 286 287 287 287 288 288 288 287 288 287 287 286 286 285 284 283 283 284 284 284 284 283 283 284 283 282 282
288 284 283 285 282 281 282 278 278 279 281 282 283 284 284 284 284 286 291 289 289 285 283 280 281 281 279 279 277 274 276 281 278 275 274 274 277 276 274 272 273 276 278 281 282 282 282 284 283 283 284 285 285 285 285 285 285 285 285 286 287 288 288 288 288 289 289 289 288 287 288 288 287 287 285 285 285 285 284 283 284 284 283 283 283 282 282
284 281 281 284 286 285 284 285 284 284 284 285 285 286 284 284 285 289 291 287 285 281 279 282 281 279 277 275 278 280 282 279 276 275 274 277 280 276 275 276 278 281 283 283 284 285 285 286 285 285 285 285 285 285 284 285 285 285 285 286 286 288 289 289 288 288 288 289 289 288 289 289 288 288 286 284 285 284 282 281 283 283 284 283 283 283 283
Wind_Speed
27 27 28 28 31 29 30 29 27 25 24 12 9 6 3 2 6 13 16 2 10 5 2 2 3 4 5 7 12 13 12 9 8 7 2 4 2 3 2 3 3 4 5 3 4 2 2 3 2 2 3 4 9 8 11 10 8 5 3 6 4 5 1 2 2 3 5 9 9 11 10 8 7 5 2 1 3 3 5 5 6 5 2 0 1 1 2
27 28 28 28 31 30 31 30 29 23 19 7 7 3 2 4 5 6 8 1 1 2 3 3 4 4 6 9 10 9 9 9 11 8 2 2 4 5 2 3 4 2 3 3 3 1 1 0 6 5 4 1 11 7 8 13 6 5 1 2 2 1 1 4 0 2 6 6 6 7 7 6 3 2 6 2 3 6 2 3 2 3 1 0 1 3 1
28 28 28 29 31 31 30 31 31 29 20 10 2 2 3 5 4 5 5 3 1 4 3 5 4 6 6 6 6 5 6 8 8 6 3 0 2 3 2 5 2 2 4 6 7 5 1 1 1 3 2 3 8 7 5 11 6 6 5 8 3 3 0 2 2 2 1 1 1 3 6 6 3 3 6 6 4 4 6 2 3 2 4 4 1 1 2
28 28 29 29 30 32 30 30 32 33 30 17 1 2 3 2 3 4 5 3 1 3 3 3 3 4 4 5 4 5 7 6 5 7 6 1 4 4 5 4 7 4 5 3 4 7 6 1 1 3 2 2 5 7 8 10 5 6 10 6 4 1 1 2 2 3 5 5 4 0 5 4 5 9 8 6 3 8 5 2 2 1 1 5 4 1 2
29 28 29 29 29 30 30 30 32 33 33 27 1 2 3 3 2 5 7 8 3 4 3 3 3 4 4 4 1 4 4 4 6 5 4 9 6 7 8 3 2 2 4 2 2 2 5 6 6 4 7 5 2 9 12 10 9 8 5 6 3 2 1 1 1 1 2 4 8 9 6 5 4 5 5 7 10 4 4 1 3 1 3 6 1 3 4
30 29 29 29 29 29 29 29 31 34 32 32 4 4 6 3 3 3 2 3 4 9 4 8 8 9 7 0 5 5 5 2 2 2 2 6 6 5 7 10 6 8 7 2 1 1 3 3 3 6 5 8 3 5 8 3 4 6 1 5 3 3 1 2 1 3 5 6 8 8 9 9 8 8 8 8 5 7 6 4 4 3 1 6 2 1 3
29 28 28 28 28 29 29 30 30 33 33 25 6 7 4 2 3 2 8 6 8 7 9 10 7 7 11 1 7 5 6 7 6 3 2 1 4 9 3 9 11 15 17 13 8 12 3 4 2 4 4 5 3 3 7 4 5 4 1 1 1 2 1 1 1 3 3 4 5 7 6 4 5 5 5 4 7 4 4 4 3 2 3 4 3 2 3
29 27 27 27 28 28 29 29 29 31 31 16 8 10 7 6 6 7 9 4 7 7 8 6 7 5 11 6 7 9 5 8 8 6 5 2 4 8 6 11 14 12 17 14 8 7 6 4 4 4 6 5 4 2 2 0 1 4 1 2 1 4 2 3 1 1 2 4 8 8 7 7 7 8 8 9 2 4 2 2 4 4 2 4 4 5 5
28 27 27 27 27 28 27 28 28 29 25 9 8 5 7 3 3 3 5 9 6 7 4 6 6 7 10 6 8 9 14 10 12 10 15 12 11 9 6 11 8 14 15 13 12 11 10 7 6 5 4 3 2 2 2 3 1 3 3 1 1 3 1 2 1 3 3 3 5 7 6 6 6 6 5 5 5 5 3 4 2 5 3 6 9 9 5
29 28 27 26 26 27 27 27 27 27 20 6 5 7 9 5 3 3 3 2 7 3 5 7 8 7 6 9 10 7 12 14 11 4 9 15 14 13 11 9 9 9 10 11 10 12 12 11 10 4 5 4 6 5 4 5 3 2 3 1 4 2 2 1 1 0 3 5 3 7 6 7 8 4 6 7 6 2 2 3 10 7 5 10 7 3 3
25 26 27 27 26 27 27 26 25 25 16 10 7 4 9 8 8 9 5 4 7 10 8 11 9 6 7 12 11 13 12 14 12 7 5 12 13 14 8 9 6 3 6 6 8 9 11 11 10 5 5 5 6 6 5 7 4 3 1 2 1 2 2 1 3 3 1 1 4 5 6 3 2 2 5 6 6 4 6 6 10 9 7 2 4 4 7
25 26 26 27 26 26 26 26 25 24 18 8 3 4 5 7 5 3 4 6 6 9 8 9 11 10 12 11 9 10 9 8 8 7 5 5 9 11 10 8 7 3 5 4 7 10 12 8 7 5 6 7 7 7 8 8 7 3 1 3 1 2 1 2 2 1 0 2 5 5 4 4 0 8 11 8 9 11 6 15 15 12 12 12 11 12 11
26 24 27 27 26 26 25 25 25 25 23 12 7 5 5 7 4 4 3 3 6 9 8 9 12 13 14 12 9 8 10 9 9 7 4 6 7 7 4 5 5 4 5 8 11 8 6 4 5 5 7 7 7 7 9 9 8 6 4 3 4 4 5 2 1 3 1 1 1 1 3 1 5 5 11 8 6 11 8 13 14 14 11 8 9 8 9
24 25 26 26 27 26 25 24 24 25 25 18 8 7 5 9 7 6 4 3 5 7 6 6 12 12 12 12 10 10 11 8 7 4 2 3 4 4 3 5 4 4 6 7 6 5 4 2 3 3 4 3 3 4 3 5 7 10 10 8 5 4 3 5 1 2 3 3 4 7 2 4 10 5 8 6 5 4 2 3 5 9 11 11 8 9 9
24 25 27 28 27 25 25 24 23 24 24 22 7 7 6 7 4 2 3 0 1 3 8 6 7 8 8 9 11 7 6 7 10 7 7 3 1 4 4 6 4 4 4 3 2 1 1 0 1 1 2 1 0 2 3 4 1 5 8 11 11 7 7 2 5 2 5 2 0 2 1 3 1 4 7 7 5 2 4 1 0 9 11 9 8 9 9
24 25 27 27 26 25 25 25 23 22 22 22 9 7 4 6 3 2 2 1 1 3 6 5 6 6 6 7 10 9 7 4 6 6 4 4 4 5 5 7 3 2 1 2 1 2 1 1 1 0 1 1 3 2 1 1 2 2 2 2 0 4 8 7 7 1 2 2 2 2 2 1 1 5 6 8 8 7 4 3 1 6 8 10 8 8 8
24 25 25 28 27 25 25 25 23 22 20 20 9 7 4 8 6 6 5 3 3 4 6 10 5 5 5 7 9 7 7 5 6 5 5 5 5 8 8 7 5 3 1 3 2 1 2 1 1 1 2 3 3 2 4 3 3 4 5 2 6 6 4 6 4 1 2 1 2 2 1 2 4 5 6 9 7 5 6 1 1 7 7 7 9 9 8
23 24 24 25 26 25 24 24 24 22 21 22 11 5 4 6 7 7 3 3 1 4 5 9 9 7 6 6 5 5 4 5 7 3 3 6 8 11 10 7 4 4 4 1 1 1 2 1 1 1 1 4 5 4 2 6 2 4 3 5 3 4 3 5 1 1 1 4 1 4 0 1 3 6 9 9 8 4 4 1 3 6 4 5 7 7 7
23 23 24 25 26 24 23 23 23 22 20 21 13 7 3 6 8 7 3 4 4 4 8 10 8 8 6 6 5 6 6 6 5 3 5 6 3 12 11 2 6 4 7 6 5 2 3 2 3 3 2 5 5 1 3 2 2 2 4 5 5 3 2 2 4 3 0 0 2 1 2 2 4 7 4 5 4 4 1 2 4 3 4 4 5 4 5
22 23 23 25 26 24 23 23 23 22 21 21 13 3 8 5 6 7 7 4 3 3 4 6 7 10 6 7 7 6 6 6 6 4 4 4 8 12 7 7 8 6 8 5 5 3 2 4 1 1 2 1 1 1 0 2 2 1 2 2 2 1 3 1 2 1 2 2 1 0 2 1 3 3 5 6 5 1 0 2 4 5 7 10 6 5 6
22 22 22 24 25 24 23 22 22 21 20 20 13 5 5 4 6 6 3 2 3 1 2 2 6 6 5 6 4 5 4 6 5 5 5 4 6 5 3 3 7 5 3 4 4 4 4 5 6 1 1 1 3 1 2 1 2 6 6 3 4 3 1 1 2 0 1 1 2 2 3 4 3 5 2 0 3 3 8 7 7 7 7 7 6 7 7
22 22 23 23 24 25 22 22 22 21 19 19 16 6 4 6 5 7 8 1 1 1 2 3 4 3 4 2 3 3 6 6 4 2 3 5 5 6 3 7 7 4 3 3 3 2 3 2 3 3 4 4 5 3 6 5 2 2 1 3 2 7 3 0 2 2 3 1 2 4 1 3 2 2 4 10 11 8 5 6 4 5 4 4 5 5 6
21 21 21 23 24 23 21 21 21 20 19 19 12 3 4 8 9 10 7 3 1 1 2 4 1 3 2 5 10 7 2 3 4 3 2 1 4 5 7 6 4 3 2 3 3 2 3 3 3 2 3 4 4 4 5 2 2 6 6 5 5 3 3 3 3 2 2 2 5 4 6 5 5 6 10 9 7 6 6 5 5 4 3 3 4 4 4
21 21 21 22 23 22 21 21 21 19 19 17 9 3 5 5 6 7 8 3 4 3 3 5 4 3 4 7 7 3 6 5 3 2 1 2 2 3 2 3 1 2 3 5 3 3 4 1 2 1 1 3 4 4 6 4 4 4 3 4 3 4 4 4 2 2 5 2 8 11 8 5 8 9 9 7 6 5 4 4 4 4 4 4 4 4 4
20 20 21 22 22 20 20 20 20 19 18 18 15 6 4 2 4 6 5 4 4 2 0 1 3 3 4 2 3 2 2 0 3 4 4 2 2 4 2 2 2 0 3 4 3 4 2 2 3 2 3 2 4 2 2 3 3 3 3 1 2 2 4 4 1 3 2 0 9 8 5 4 7 8 7 7 6 6 5 2 2 3 3 3 4 5 5
19 20 21 20 20 19 19 19 18 18 18 19 12 4 5 3 4 4 3 1 3 0 1 1 2 1 2 4 5 4 4 4 3 3 2 1 8 4 1 2 2 2 2 1 2 2 2 1 1 2 3 2 3 1 2 1 4 3 1 3 1 1 3 2 2 2 2 4 11 10 8 7 10 10 8 7 6 6 6 7 7 6 7 7 7 6 5
19 19 20 20 19 19 18 17 17 17 18 17 8 6 6 4 5 6 5 4 3 1 4 2 1 4 5 3 1 5 1 3 4 3 5 7 2 3 1 1 3 2 4 4 3 1 0 1 2 1 0 1 2 2 0 2 3 3 3 4 3 5 4 3 6 4 4 4 3 6 5 5 8 5 6 7 7 5 6 6 6 5 5 5 6 6 6
19 19 19 19 19 19 17 16 16 16 16 16 8 6 5 4 3 6 5 5 4 1 2 3 3 1 3 3 3 4 3 1 3 1 4 5 5 1 3 3 1 1 0 2 4 3 2 3 3 0 0 2 2 3 3 3 2 1 3 3 4 6 2 4 3 1 1 2 3 2 1 2 2 5 5 5 6 4 4 4 5 5 4 4 4 6 6
18 19 20 20 19 19 17 16 15 14 15 11 6 6 6 4 2 6 6 6 3 2 2 3 3 1 1 2 2 4 8 3 1 1 3 3 4 4 4 3 3 2 1 1 1 1 1 3 1 0 1 1 1 2 3 2 1 2 2 3 4 4 7 7 4 1 0 2 3 3 2 3 3 4 3 4 4 5 5 5 4 4 4 4 4 5 5
17 18 18 19 19 19 17 15 14 14 14 5 3 1 1 0 4 4 5 4 3 2 1 3 2 2 1 1 2 2 3 0 6 3 3 0 2 4 4 2 0 2 2 0 0 2 1 1 1 0 1 1 1 0 0 1 1 2 2 5 4 5 4 5 3 2 1 2 2 2 2 3 4 3 4 3 4 4 3 3 4 4 4 5 5 6 4
18 18 18 18 18 18 16 14 13 15 13 3 2 1 1 1 1 5 8 5 3 1 1 1 4 3 1 0 2 4 4 4 1 2 0 2 3 4 3 2 1 2 1 1 0 2 0 1 1 1 1 0 1 1 1 1 2 1 2 4 5 5 3 1 1 3 4 4 4 4 4 4 4 6 4 5 3 4 3 3 4 4 4 4 4 5 6
18 18 18 18 17 17 16 13 11 9 5 5 3 1 0 2 3 7 9 6 4 1 0 2 2 1 1 1 2 2 1 3 4 0 2 1 1 3 2 1 2 0 1 0 0 0 1 2 2 2 2 2 3 0 1 1 3 1 1 4 4 4 2 2 4 4 2 3 4 4 2 3 4 4 5 4 4 3 3 3 3 4 6 3 5 6 7
18 18 18 17 17 16 15 12 10 6 3 5 7 6 3 1 6 7 5 5 1 1 1 1 2 0 1 3 1 3 3 2 2 2 0 1 2 0 0 1 3 3 2 1 0 1 1 1 0 2 1 3 2 1 2 3 3 3 3 5 4 2 2 2 2 3 3 3 2 0 2 3 5 4 2 2 1 2 2 4 4 4 3 4 6 6 6
19 18 17 16 17 17 16 14 11 10 6 1 2 2 3 0 4 6 5 1 2 2 0 1 1 1 3 1 2 1 2 1 3 1 0 2 1 1 0 1 0 1 0 2 1 0 1 0 2 2 2 2 0 1 1 1 4 4 4 4 4 1 2 3 3 4 3 1 1 0 2 2 2 2 1 1 2 4 4 3 3 3 3 4 5 4 5
19 18 17 16 15 16 16 10 2 1 3 4 2 1 1 2 3 5 3 1 2 1 1 2 1 1 3 1 1 1 2 2 2 1 1 2 3 1 0 1 1 1 2 0 1 2 2 3 2 1 3 3 3 1 3 2 4 4 4 3 4 3 3 3 3 3 4 3 3 2 1 1 1 2 0 2 3 3 3 2 2 3 3 4 4 4 4
20 19 16 14 16 10 4 3 2 2 1 0 2 4 4 4 4 3 3 2 1 0 0 2 2 2 1 2 2 1 1 2 1 1 2 1 2 1 0 0 3 1 1 3 2 1 2 0 1 3 0 2 3 4 4 4 4 4 3 2 2 3 1 1 1 2 3 4 3 3 4 3 4 2 2 4 3 3 3 2 2 2 3 3 3 4 4
20 18 16 12 5 1 2 2 2 1 2 4 4 7 8 3 2 1 2 1 2 2 1 1 2 3 1 0 1 0 3 2 1 3 2 2 1 0 0 1 2 1 0 1 2 2 3 1 1 1 1 3 2 4 7 5 5 4 2 2 3 3 2 2 3 2 2 4 3 4 3 3 4 3 2 4 3 3 3 4 4 4 4 5 4 5 5
21 17 4 2 1 1 1 0 0 3 4 6 5 3 0 2 0 1 1 1 2 3 2 1 3 3 2 1 1 1 1 2 3 1 1 1 2 3 1 1 1 1 2 1 2 1 2 1 2 3 4 3 4 5 6 6 5 3 4 4 3 0 0 2 2 0 1 2 2 3 3 2 4 2 2 3 3 3 2 1 2 2 3 2 2 2 4
13 2 2 2 1 1 1 0 2 1 2 4 0 0 1 1 0 1 2 2 0 1 2 3 3 3 1 1 0 2 3 1 2 1 2 1 1 2 1 2 1 1 1 1 2 3 1 1 2 2 5 3 6 4 5 5 5 4 5 3 1 1 4 2 1 2 2 1 3 1 2 1 2 2 2 2 1 1 3 2 2 1 2 1 0 2 2
5 3 3 2 2 3 4 3 2 1 1 1 1 1 1 1 2 2 1 1 2 2 2 4 3 3 1 1 1 0 1 0 0 2 1 4 1 1 0 1 1 1 2 1 2 1 1 1 1 1 3 2 3 2 3 3 4 5 4 2 2 5 3 1 0 2 2 5 2 3 4 2 2 3 2 1 1 2 4 4 3 1 2 1 1 2 3
4 3 2 2 3 4 5 6 4 1 1 1 0 1 0 1 1 1 1 1 1 1 2 1 2 1 1 1 2 1 1 1 0 0 0 2 0 0 1 0 1 1 1 1 1 0 0 1 1 2 2 5 6 4 5 4 5 5 5 4 5 4 2 1 2 3 3 3 3 2 2 3 2 2 1 0 1 3 4 3 1 1 2 2 1 2 4
3 3 4 6 6 6 5 2 1 1 1 0 0 1 1 1 0 1 1 1 2 0 1 0 1 0 1 1 1 2 0 0 0 0 0 2 0 1 0 1 0 1 1 1 1 2 1 2 1 3 2 6 6 6 6 5 4 5 5 5 5 3 3 3 3 2 0 2 3 4 3 1 1 0 1 2 4 4 1 1 1 2 1 2 2 2 3
13 9 5 3 2 2 1 1 2 1 0 0 1 1 1 1 2 2 1 1 0 0 1 1 1 3 2 2 1 1 1 2 1 0 1 1 0 0 0 1 0 2 2 1 1 1 2 2 2 5 2 7 6 6 4 2 3 5 6 7 6 4 4 5 4 4 3 1 4 4 3 2 2 3 2 1 3 3 1 1 1 1 3 3 3 3 3
5 4 2 1 1 2 0 1 0 1 0 1 1 2 2 2 2 1 1 1 1 1 2 3 2 2 1 0 0 0 0 1 2 0 1 1 0 1 0 1 2 1 1 1 1 3 3 1 4 6 3 7 4 4 4 3 2 5 4 6 6 5 5 5 4 4 3 2 2 4 3 2 4 1 1 1 3 1 1 1 2 2 3 3 3 3 4
2 1 1 1 1 1 2 2 1 1 2 1 2 3 2 3 3 1 4 2 1 1 2 3 3 3 1 1 0 0 1 0 1 1 1 0 1 1 1 2 1 1 1 3 1 3 1 4 3 4 4 6 5 4 5 4 4 5 4 5 7 5 5 6 5 5 4 4 4 3 3 3 3 3 4 4 3 1 1 1 1 2 2 2 3 3 4
1 1 2 1 4 2 1 1 0 1 1 1 3 3 5 6 3 2 1 2 1 4 5 4 6 5 3 0 1 1 0 1 0 1 1 1 1 2 2 1 1 2 1 1 2 4 5 6 6 5 7 8 7 4 4 3 2 4 3 3 7 5 6 5 5 5 5 5 4 4 4 4 4 4 4 1 0 0 2 2 2 1 1 2 2 3 4
2 1 1 1 2 2 1 2 2 2 2 4 4 4 4 3 2 1 1 2 5 4 4 3 4 3 1 2 2 1 1 2 1 0 2 1 1 1 1 1 1 1 1 2 3 3 3 5 2 2 6 4 4 4 4 3 1 2 3 4 5 6 5 4 4 4 5 4 5 4 2 3 5 4 4 4 2 1 4 4 3 2 1 1 2 2 3
2 1 1 1 2 1 3 3 3 5 6 7 7 5 4 3 3 2 2 2 5 5 3 3 2 1 1 1 3 3 2 0 1 2 2 1 1 1 1 1 2 1 2 2 5 3 4 6 2 7 7 9 7 8 5 4 1 1 1 3 5 7 5 5 5 5 5 5 5 4 4 4 5 4 2 4 4 3 3 3 4 2 1 2 2 2 3
1 1 1 1 1 1 3 3 6 8 8 8 6 6 5 2 3 5 3 2 4 3 4 4 1 2 1 0 2 1 2 1 2 1 1 2 1 2 1 2 1 3 2 4 6 5 5 6 4 6 6 6 5 5 4 3 4 4 2 3 3 5 7 7 6 6 5 5 4 5 5 5 5 5 3 4 4 4 3 2 4 4 3 3 2 3 4
1 2 2 2 2 4 4 6 6 7 6 5 6 5 3 3 3 2 2 3 2 3 3 2 3 2 1 1 1 1 2 1 1 1 2 4 2 2 2 4 4 4 4 2 4 3 3 2 4 4 8 7 4 4 4 2 3 1 1 1 2 3 4 5 6 6 5 4 5 5 5 4 4 4 3 4 5 5 4 3 3 5 3 2 3 3 3
1 2 3 3 5 4 2 3 4 6 7 7 6 6 5 2 2 2 0 1 1 1 1 1 1 2 1 1 1 2 2 1 2 4 3 3 2 3 4 6 4 4 6 6 4 4 5 6 3 1 6 6 7 5 6 4 4 3 3 3 3 3 3 4 4 7 6 5 5 6 6 6 5 4 3 5 4 4 5 4 4 5 5 4 3 3 4
2 3 3 4 7 8 8 8 7 8 9 9 8 6 4 4 2 1 1 3 3 2 2 1 1 1 1 4 3 2 1 1 2 2 4 3 3 4 4 5 5 5 4 5 7 7 8 7 4 4 7 7 6 6 5 4 3 3 4 4 3 2 2 3 4 5 6 5 5 5 6 6 5 4 4 3 3 1 5 5 3 5 6 5 4 4 5
Wind_Direction
355 353 351 350 350 348 346 345 347 351 349 3 345 320 313 295 274 297 305 243 120 112 217 236 208 216 241 259 254 257 270 274 266 269 314 289 208 225 201 253 299 259 239 278 295 334 278 272 245 228 207 87 79 16 22 44 56 75 23 57 324 29 83 35 296 306 314 330 326 314 325 328 337 338 338 40 285 170 168 179 187 166 222 313 17 233 255
355 354 352 351 351 349 347 344 344 350 2 337 308 301 286 293 285 301 300 254 282 120 197 243 256 246 243 239 260 260 269 258 252 241 259 303 323 295 299 226 235 313 10 348 302 186 309 128 266 319 93 65 60 43 17 39 38 61 244 106 259 60 299 126 34 354 341 338 335 340 348 41 47 310 316 24 38 33 71 61 6 21 254 137 84 261 296
355 355 353 352 352 351 348 346 342 343 355 350 293 283 292 280 239 231 271 259 139 203 173 208 246 268 264 262 256 297 275 264 271 288 254 210 283 323 325 327 62 308 8 339 339 337 155 352 221 218 57 114 125 107 92 84 79 56 76 79 113 104 247 77 118 160 169 268 89 36 343 337 318 340 346 346 5 358 30 23 19 53 301 328 150 202 256
356 356 355 353 353 352 351 348 346 343 343 354 238 256 298 314 348 303 345 345 249 253 290 290 243 282 289 313 277 276 278 288 316 333 282 227 357 331 328 314 14 348 10 359 350 338 327 250 359 352 96 200 132 132 101 91 103 107 67 61 69 104 56 114 151 156 195 216 256 246 359 339 345 321 325 308 27 35 45 86 80 206 212 347 264 151 179
357 357 357 355 354 354 352 351 349 345 340 345 111 291 196 296 23 8 342 322 340 11 320 326 328 281 263 261 299 277 281 296 300 352 298 45 16 344 299 307 8 354 356 343 329 303 308 347 0 16 9 260 187 146 109 101 103 94 82 90 76 67 34 302 31 269 233 288 303 316 321 291 289 314 304 346 333 359 30 80 236 207 32 312 263 57 22
359 358 358 356 355 354 353 354 352 348 342 339 340 24 13 358 339 33 23 267 303 342 344 5 325 327 330 320 354 350 330 339 327 303 10 6 12 26 341 0 6 333 303 253 238 278 270 359 15 6 26 6 24 98 103 90 107 88 76 107 115 133 146 262 206 286 297 293 291 290 298 297 287 280 284 291 321 349 348 296 285 11 212 229 246 45 314
1 360 359 357 356 355 355 356 356 353 343 338 49 30 16 19 314 328 350 355 317 288 316 332 316 342 347 327 2 346 17 358 349 8 316 101 40 29 26 336 20 35 43 48 35 8 10 355 350 56 354 21 332 28 49 74 123 80 54 41 124 83 190 238 229 290 302 307 307 304 288 281 300 301 303 311 324 319 351 326 300 314 260 258 276 7 10
3 1 360 358 357 357 357 357 358 356 345 336 46 51 5 11 353 331 334 318 298 322 321 316 343 51 12 33 351 348 17 1 334 355 20 48 27 29 6 12 13 30 44 41 49 14 8 2 32 341 35 348 10 23 91 238 75 127 175 131 29 106 268 143 54 43 341 343 329 322 327 331 312 307 312 309 328 13 349 17 339 30 342 343 36 77 57
3 2 1 359 358 357 358 359 360 359 350 24 9 35 25 309 318 305 304 320 309 321 355 37 51 39 9 12 1 6 2 25 8 51 31 40 23 6 57 37 18 42 40 31 18 359 350 345 341 352 359 19 312 73 296 32 35 16 16 29 32 112 238 64 68 48 315 336 313 304 311 320 326 323 337 354 21 21 340 27 311 57 11 20 43 43 23
4 3 1 0 359 358 358 360 1 3 357 33 346 8 348 336 292 302 280 295 293 332 16 30 43 30 8 4 8 0 30 26 27 20 0 25 29 15 31 34 62 39 29 19 354 338 328 320 315 324 325 327 327 324 337 351 12 19 9 63 112 146 109 80 73 22 249 256 321 332 359 7 357 329 348 356 338 320 43 35 42 36 69 58 59 14 347
4 3 2 1 0 359 358 359 1 5 8 16 355 337 6 5 328 329 349 7 351 15 21 26 25 31 355 19 6 5 32 25 42 33 1 9 17 1 17 46 48 71 43 336 325 325 311 299 297 307 304 306 313 317 325 324 314 331 61 46 8 56 97 177 145 163 205 5 346 12 18 345 242 306 19 32 11 20 65 51 46 31 51 140 150 91 38
4 3 2 1 360 358 358 358 359 3 9 355 313 299 10 335 321 313 346 23 12 11 30 34 10 9 1 13 13 360 13 23 34 42 45 12 5 1 1 34 45 43 350 316 343 324 311 294 295 284 253 250 255 263 276 284 287 267 264 251 208 220 159 228 153 107 215 41 38 19 284 235 183 31 27 19 34 30 81 60 38 30 29 29 39 37 43
3 1 1 -0 359 357 357 357 358 358 2 357 354 337 356 355 347 346 339 3 37 15 17 17 9 2 354 2 3 8 354 32 29 13 33 45 9 353 12 33 35 357 345 356 333 328 342 321 316 311 317 315 306 285 257 246 250 262 265 218 174 199 202 176 87 138 67 74 120 169 222 167 55 62 33 4 36 21 54 51 27 13 16 24 52 44 39
1 0 0 359 358 356 355 357 357 357 356 359 352 335 343 9 12 356 16 19 13 34 0 18 6 359 358 3 357 14 6 16 349 341 21 46 5 347 5 48 35 359 13 340 337 338 350 4 342 7 325 332 304 294 274 270 226 217 223 248 243 203 156 115 234 111 155 173 159 213 326 355 5 10 8 17 29 347 37 104 31 9 13 23 34 32 31
359 359 360 359 358 355 353 354 356 357 356 354 341 332 350 13 16 357 291 288 323 17 33 33 342 346 358 12 2 14 3 2 1 341 8 43 2 8 345 63 44 19 342 351 342 335 238 302 0 0 293 168 231 252 209 235 251 236 214 207 211 212 204 208 130 267 125 151 34 346 10 249 331 15 345 349 342 352 315 106 52 7 5 12 28 27 24
358 358 358 358 357 355 352 351 354 356 359 354 350 344 328 5 343 311 298 264 304 32 359 9 4 352 4 8 356 16 346 11 355 336 360 0 20 305 31 12 16 6 335 294 272 306 273 95 258 93 225 265 273 312 273 319 275 232 199 83 277 81 103 118 128 159 66 82 142 197 202 208 260 310 332 329 323 336 312 91 43 343 350 3 10 17 19
357 357 357 358 357 355 352 349 350 355 358 3 345 332 332 4 4 351 342 347 47 69 355 9 13 18 11 2 1 15 352 11 9 11 346 345 342 359 0 338 320 333 32 15 311 28 359 322 284 256 301 297 305 308 319 350 329 348 355 24 62 54 32 69 83 100 135 132 139 232 62 93 343 318 333 334 314 355 60 6 244 335 338 358 12 2 11
356 356 356 356 356 355 351 347 346 353 358 357 355 325 312 352 2 352 344 351 23 51 7 22 27 27 24 14 359 351 11 8 5 342 353 325 13 356 343 341 346 357 2 25 330 14 317 8 335 12 303 24 340 344 97 311 3 347 14 3 356 13 352 43 105 155 165 170 232 95 52 331 326 314 321 342 325 27 62 238 318 292 331 359 11 352 349
354 354 355 355 355 354 351 346 343 348 356 358 350 336 321 339 360 14 353 8 20 44 355 32 38 49 26 20 18 5 26 23 5 20 346 345 355 329 323 347 359 348 10 357 334 358 359 346 7 13 4 356 22 23 331 3 35 346 8 19 9 17 60 326 50 34 20 138 125 160 91 242 233 280 338 347 36 43 302 237 212 270 319 354 349 345 347
352 353 354 354 354 353 350 345 342 345 351 357 359 316 277 313 6 31 21 12 318 46 6 36 26 44 35 32 13 15 7 25 19 29 19 327 313 332 356 8 347 2 4 21 21 344 50 13 14 337 15 61 286 251 12 265 294 25 87 59 104 255 54 301 36 298 58 59 70 58 91 287 198 342 31 27 81 122 7 283 340 341 8 2 335 15 10
351 352 352 353 353 352 349 343 342 343 348 354 357 325 326 355 360 1 30 76 300 35 325 39 71 37 37 54 34 6 44 44 28 8 343 308 314 320 55 0 356 354 18 357 358 4 356 349 344 0 309 299 239 84 302 356 37 28 88 114 65 17 123 0 52 1 105 28 50 72 194 252 41 66 97 273 98 41 38 46 28 23 25 13 11 7 3
351 351 352 352 352 351 349 343 340 340 346 356 355 341 330 323 345 353 324 321 191 154 228 28 71 96 66 325 204 134 71 37 58 36 9 341 336 19 33 22 27 6 12 359 13 4 11 328 323 15 341 329 354 33 339 43 0 320 352 107 95 329 84 65 125 348 76 60 195 224 157 111 106 63 49 53 48 54 49 55 60 35 4 6 5 347 350
351 350 350 352 352 351 348 343 340 339 345 357 1 1 318 316 347 338 341 336 324 6 14 2 37 44 318 43 35 28 45 134 88 59 93 24 342 7 45 19 3 334 16 45 37 319 276 335 296 325 345 12 349 324 340 29 24 12 3 41 124 10 31 16 71 8 76 95 90 93 55 32 23 56 67 50 29 35 42 43 20 2 356 356 340 317 343
350 350 350 351 351 350 348 345 341 341 342 351 355 309 313 306 336 347 351 352 59 344 344 11 47 338 328 38 345 15 14 39 80 171 177 99 52 337 11 69 317 351 7 349 349 326 295 278 264 346 67 338 16 30 18 1 62 298 1 11 39 30 26 48 73 320 61 292 24 32 18 26 38 46 36 41 46 34 29 6 23 342 330 334 329 347 343
349 350 350 350 350 349 348 348 346 344 344 350 348 316 283 268 1 9 9 13 341 34 155 323 36 279 20 43 262 46 43 121 50 20 27 334 86 85 10 334 298 53 307 297 343 12 6 356 343 8 35 315 64 346 54 71 328 17 33 295 42 333 46 37 40 55 96 173 46 19 7 18 45 48 36 16 2 357 354 2 340 318 333 352 354 359 349
347 348 349 348 348 348 348 351 351 346 343 344 347 332 318 342 10 1 343 2 279 131 212 137 223 224 48 34 13 336 323 16 58 6 292 344 105 130 195 325 335 171 217 296 35 47 327 336 335 6 42 338 60 73 352 181 219 288 338 277 350 336 48 335 14 48 319 34 32 14 21 26 16 3 7 7 354 347 346 354 355 1 6 1 359 4 343
342 345 346 346 346 346 346 348 351 346 342 342 338 323 326 334 39 22 27 343 2 8 7 18 25 32 359 28 316 266 54 52 77 347 342 350 77 121 134 242 278 338 43 3 326 293 302 309 30 339 99 238 349 287 204 333 6 2 349 296 345 54 37 343 43 27 29 50 347 33 29 319 335 352 348 340 344 0 5 0 357 355 5 3 360 344 338
338 339 340 343 343 342 342 344 346 345 345 339 329 317 309 340 18 41 11 15 47 98 249 292 334 271 305 299 343 340 122 221 93 286 56 332 327 187 183 231 218 179 45 60 345 6 341 0 288 247 61 318 32 332 355 322 346 339 293 350 33 88 38 62 81 107 276 343 16 74 173 235 256 310 324 351 341 7 9 329 331 341 355 2 2 330 318
331 332 335 337 339 339 338 339 341 341 339 334 315 309 295 272 45 54 16 340 354 346 293 254 256 201 89 275 347 359 341 33 124 98 79 344 331 355 323 303 277 212 148 114 200 247 266 249 167 109 162 213 107 304 21 339 350 61 67 67 52 59 74 85 108 112 321 24 342 347 9 294 293 301 330 328 319 337 351 2 14 352 338 352 348 307 300
328 328 328 331 334 337 335 338 340 336 330 309 312 294 324 34 39 46 18 344 319 327 358 10 346 251 202 246 329 327 269 89 38 336 130 89 323 316 277 272 115 42 74 191 129 306 277 306 284 299 147 141 110 193 66 256 325 135 310 55 41 69 86 107 122 114 237 251 266 284 304 311 295 323 324 330 1 46 35 354 334 333 355 2 328 317 350
327 326 325 325 329 332 333 335 338 338 332 303 222 309 352 51 307 14 346 330 315 13 265 216 234 304 2 198 224 256 299 47 25 313 196 197 238 236 266 5 330 151 213 292 54 241 145 278 328 296 102 344 111 144 214 317 291 91 326 76 63 72 54 120 106 71 53 24 13 4 357 340 345 353 350 348 24 36 1 342 339 0 9 347 340 26 16
326 325 324 324 324 326 328 332 336 340 323 1 26 35 226 216 266 312 310 300 321 345 60 308 303 130 190 295 277 209 358 0 296 282 355 68 345 14 353 102 259 295 148 134 165 39 253 227 199 255 126 164 106 172 68 304 292 165 129 79 71 56 9 35 68 80 67 58 38 13 358 339 353 346 308 353 45 353 7 341 37 9 347 344 28 26 18
323 324 324 322 321 320 320 321 321 325 289 296 279 284 283 349 302 294 297 326 352 242 236 281 253 225 246 221 183 14 356 326 294 88 330 269 207 192 234 241 258 277 35 81 183 214 229 334 175 334 216 129 128 181 162 214 212 133 109 98 94 72 357 48 95 116 94 60 60 335 294 321 305 311 335 60 34 353 8 34 18 5 0 3 13 11 3
319 322 321 319 316 314 314 314 310 303 276 255 295 192 204 28 328 312 325 297 268 261 148 227 273 2 280 16 74 262 297 28 301 10 119 260 241 136 267 352 216 169 250 142 260 34 314 44 253 189 59 295 192 72 259 240 92 69 53 58 89 44 31 14 34 25 28 30 28 330 146 269 299 335 38 50 33 27 39 48 26 353 2 16 18 20 6
315 317 317 313 313 308 307 304 342 315 274 240 190 176 238 317 293 284 296 339 15 336 342 286 67 338 329 317 99 280 289 303 299 5 288 254 163 143 129 314 0 119 259 44 290 188 217 220 191 192 237 152 110 208 220 204 120 85 73 44 60 45 31 24 357 8 343 340 7 9 48 319 39 42 23 62 53 37 39 19 13 4 12 16 12 16 1
311 309 310 311 302 298 304 283 178 244 253 353 276 191 191 294 302 257 232 259 188 264 311 277 336 300 257 311 3 280 17 315 310 298 232 260 335 24 144 200 307 275 144 130 221 207 203 10 64 246 175 246 220 197 195 118 100 111 116 115 112 116 157 218 263 3 339 332 330 70 14 15 56 26 53 65 59 26 7 7 12 30 20 8 6 358 352
304 301 303 296 273 198 244 235 210 129 227 220 288 326 295 295 242 202 216 231 218 170 224 290 301 274 54 271 229 273 46 359 336 316 351 18 277 258 310 17 226 229 12 269 245 253 248 188 130 250 177 221 250 129 125 131 128 115 118 116 100 75 61 20 50 42 354 309 325 68 20 42 61 20 41 60 52 34 18 17 359 354 17 23 6 359 351
298 298 285 225 227 262 256 34 316 269 342 312 300 312 42 81 337 259 176 230 200 161 240 208 243 250 248 212 298 225 97 278 25 341 324 29 349 292 172 177 233 79 281 257 254 252 133 154 195 200 250 215 153 135 125 121 139 152 116 94 92 102 162 106 97 51 333 341 19 31 6 9 106 70 34 66 45 9 347 341 331 335 69 56 18 347 337
294 260 189 192 196 282 45 222 262 54 253 252 179 353 255 163 166 243 210 195 109 231 214 180 234 243 225 235 235 136 124 167 324 300 314 208 117 293 40 24 331 79 283 359 299 59 347 274 249 196 260 130 124 129 115 120 122 109 105 106 164 160 105 121 157 157 227 192 162 139 143 171 88 94 70 70 73 303 291 289 277 280 121 116 25 294 295
359 341 335 328 51 346 294 246 221 244 278 328 219 112 256 194 175 257 171 200 201 203 131 223 210 209 186 159 131 299 39 80 330 296 351 313 85 176 341 291 300 51 278 278 256 81 160 278 277 313 303 99 114 152 115 135 111 124 118 174 142 114 131 147 169 237 138 125 155 152 178 192 116 126 132 167 172 270 288 303 280 160 140 154 243 269 272
2 328 343 10 321 307 306 325 312 269 199 255 308 265 62 293 243 263 329 270 209 246 183 187 170 176 83 106 136 203 314 84 258 188 109 251 266 70 28 285 12 307 238 262 274 115 260 281 316 263 230 172 152 164 140 179 152 169 160 171 122 131 132 128 102 58 93 141 166 134 69 60 66 93 123 236 232 242 251 243 266 292 182 167 242 259 257
326 262 282 286 283 270 285 289 204 266 274 186 147 254 213 234 267 287 163 218 246 157 132 65 290 67 122 147 192 115 137 158 120 146 106 296 41 121 242 264 324 208 274 246 332 279 303 258 239 276 158 168 157 172 168 187 159 148 157 131 131 153 138 112 112 81 101 154 134 113 109 106 125 201 238 256 264 267 254 48 9 338 322 205 214 244 275
291 267 226 267 287 275 190 258 214 156 159 227 85 312 239 256 204 215 247 212 193 149 214 188 171 112 83 28 27 87 173 175 118 294 96 254 328 88 215 243 188 256 246 309 282 285 267 263 272 252 188 162 164 169 159 161 154 133 126 134 146 150 134 137 141 148 206 170 127 133 172 208 210 220 227 266 300 336 83 95 32 2 6 10 6 347 346
263 259 252 197 282 272 203 293 264 55 305 188 165 227 227 251 270 232 264 263 81 262 147 165 181 117 255 70 126 332 19 19 42 27 267 207 161 229 238 230 212 244 355 267 255 247 245 234 221 242 150 141 154 137 134 175 172 133 135 136 133 136 137 142 162 167 182 147 156 183 177 176 248 246 103 263 272 324 30 71 36 35 40 27 5 352 351
333 314 220 252 224 280 53 317 296 127 233 215 204 243 234 244 266 228 195 240 129 245 44 79 71 77 53 145 149 210 100 206 29 95 263 44 299 246 190 248 260 302 245 271 267 278 286 273 301 308 137 147 137 159 152 199 157 156 177 162 147 155 156 158 183 175 183 166 189 193 219 221 242 202 216 224 242 189 102 101 71 58 41 33 18 0 346
321 308 298 309 318 302 176 265 274 273 242 221 235 221 239 253 281 342 116 171 85 46 40 33 35 44 347 59 131 217 95 137 133 219 215 154 149 262 244 285 336 292 270 253 257 244 233 242 253 275 158 164 164 176 172 202 193 153 149 145 153 163 170 174 177 185 174 184 196 179 215 233 234 216 217 194 31 219 128 123 106 85 71 55 40 11 338
271 262 259 294 267 257 166 240 242 235 293 289 275 273 272 272 119 331 329 70 63 71 65 64 67 89 59 317 357 319 156 131 203 276 49 309 222 278 154 121 248 197 258 260 248 260 271 271 256 159 143 139 146 188 186 208 180 166 187 156 153 163 162 169 188 191 193 182 183 193 188 248 266 254 183 172 181 156 132 123 106 85 84 95 56 27 358
297 312 307 269 250 243 237 241 254 272 263 262 278 288 306 338 11 345 55 106 124 89 76 59 17 36 319 339 119 237 288 241 240 232 165 248 311 255 268 238 230 202 193 224 244 236 255 267 205 178 177 173 171 184 193 173 127 285 218 148 144 153 174 182 185 206 187 187 192 194 203 238 259 263 224 191 172 141 126 143 144 141 91 81 66 42 34
277 298 291 285 272 283 289 330 330 299 296 290 293 310 315 11 356 349 351 78 81 97 108 110 114 79 264 258 263 249 260 152 251 246 141 157 170 224 202 243 207 247 232 201 235 238 244 258 227 176 180 180 181 166 167 179 195 214 203 164 166 174 178 191 201 198 190 193 190 196 202 227 243 257 211 146 129 149 157 154 145 128 108 100 91 65 46
284 243 210 233 289 280 274 285 273 275 290 313 343 320 353 43 29 334 4 18 35 93 80 86 92 109 234 66 282 273 260 209 234 250 217 221 207 219 211 250 229 229 256 256 258 241 245 261 199 187 167 173 182 181 180 189 160 167 200 213 172 169 192 199 190 176 177 188 204 201 213 223 238 254 224 177 172 173 153 146 138 134 128 103 100 89 71
203 237 243 210 232 264 334 291 301 310 311 304 307 303 312 303 159 266 115 136 140 99 91 175 193 152 129 237 230 240 227 173 228 230 227 241 211 234 228 244 238 221 235 238 251 294 304 304 286 146 152 178 191 198 181 187 181 191 190 181 190 185 205 226 191 169 180 193 208 200 217 227 226 234 210 159 167 154 135 155 157 147 132 131 137 136 127
228 236 237 219 222 240 246 259 266 260 266 272 282 290 327 301 309 350 58 76 81 122 237 172 145 160 162 213 220 238 306 249 239 232 252 237 209 238 241 239 259 254 255 266 272 265 265 262 246 158 166 187 198 198 188 183 185 195 194 184 182 186 205 221 199 175 175 190 200 205 222 227 233 232 202 164 143 147 139 175 177 144 143 151 158 159 137